Regional Weather Roundup
Issued by NWS Portland, ME

Home | Current Version | Previous Version | Text Only | Print | Product List | Glossary On
Versions: 1 2 3 4 5 6 7 8 9 10 11 12 13 14 15 16 17 18 19 20 21 22 23 24 25 26 27 28 29 30 31 32 33 34 35 36 37 38 39 40 41 42 43 44 45 46 47 48 49 50
854
ASUS41 KGYX 251310
RWRGYX
WEATHER ROUNDUP FOR MAINE AND NEW HAMPSHIRE
NATIONAL WEATHER SERVICE GRAY ME
800 AM EST SAT FEB 25 2017

MEZ002-005-006-010-012-015-018-020-021-024-026-027-029-251400-
MAINE

CITY           SKY/WX    TMP DP  RH WIND       PRES   REMARKS
PORTLAND       FOG       45  44  97 S5        29.84S VSB<1/4
SANFORD        LGT RAIN  52  52 100 S6        29.83S VSB<1/4
BAR HARBOR     LGT RAIN  42  41  96 CALM      29.90R VSB 1/4
WISCASSET      FOG       41  40  96 CALM      29.86F VSB<1/4
ROCKLAND       FOG       45  45 100 S6        29.88R VSB 1/4
FRYEBURG       FOG       37  36  96 CALM      29.82F VSB 1/4
LEWISTONAUBURN LGT RAIN  37  37 100 CALM      29.85S VSB 1/4
AUGUSTA        FOG       37  36  96 CALM      29.86S VSB<1/4
WATERVILLE     LGT RAIN  37  37 100 NE6       29.83F VSB 1/2
BANGOR         FOG       36  36 100 CALM      29.88S VSB 1/4
GREENVILLE       N/A     34  34 100 S7        29.79F
MILLINOCKET    FOG       34  33  96 CALM      29.89F VSB 3/4
HOULTON        CLOUDY    33  32  96 SE10G18   29.89F FOG
PRESQUE ISLE   MIX PCPN  32  30  93 SE6       29.90F FOG
FRENCHVILLE    CLOUDY    27  20  75 E7        29.87F
CARIBOU        FOG       31  29  92 E6        29.89F VSB 1
$$

NHZ002-005-008-009-011-012-014-251400-
NEW HAMPSHIRE

CITY           SKY/WX    TMP DP  RH WIND       PRES   REMARKS
PORTSMOUTH     FOG       49  48  99 SE12      29.82S VSB 1/16
ROCHESTER      FOG       51  50  96 S6        29.82S VSB<1/4
NASHUA         CLOUDY    58  56  93 CALM      29.82R
MANCHESTER     CLOUDY    59  54  83 S14       29.80S
CONCORD        CLOUDY    56  54  93 S10       29.81R
LACONIA        FOG       38  38 100 MISG      29.81S VSB 1/2
PLYMOUTH       FOG       36  36 100 CALM      29.80S VSB 1/4
BERLIN         NOT AVBL
WHITEFIELD     CLOUDY    52  47  83 S6        29.74S
JAFFREY        CLOUDY    53  52  96 S6        29.80S
KEENE          CLOUDY    58  54  86 S8        29.78S
LEBANON        FOG       42  41  96 CALM      29.74F VSB 1/2
MT WASHINGTON  LGT RAIN  39  39 100 SW40G55     N/A  VSB 1/16
$$

VTZ005-007-008-251400-
VERMONT

CITY           SKY/WX    TMP DP  RH WIND       PRES   REMARKS
ST JOHNSBURY     N/A     37  37 100 MISG      29.71F
MONTPELIER     CLOUDY    51  50  96 VRB5      29.74S
BURLINGTON     PTSUNNY   56  52  86 S14       29.62F
$$

MAZ007-012-024-CTZ003-RIZ002-NYZ038-NYZ072-251400-
SOUTHERN NEW ENGLAND AND NY

CITY           SKY/WX    TMP DP  RH WIND       PRES   REMARKS
BOSTON         PTSUNNY   53  53 100 S12       29.85S
WORCESTER      FOG       54  53  97 S10       29.82S VSB 1/4
NANTUCKET      PTSUNNY   48  46  93 SE8       29.89S
PROVIDENCE     FOG       50  49  96 SE7       29.86S VSB 1/4
HARTFORD       CLOUDY    56  55  97 S8        29.80R FOG
ALBANY         PTSUNNY   61  53  75 S20G28    29.68S
NEW YORK CITY  FOG       52  51  97 S5        29.77F VSB 1/4
$$

ANZ081-ANZ082-ANZ150-NHZ014-MEZ023>029-251400-
COASTAL MARINE OBSERVATIONS

STATION/POSITION TIME  TEMP    WIND        PRES    WAVE
                       AIR SEA DIR/SP/G            HT/PER
                 (UTC) (F)     (DEG/KT/KT) (MB)    (FT/S)
MOUNT DESERT ROC 1300   45                 1012.5R
MATINICUS ROCK   1200   44     170/ 19/ 20 1011.0R
ISLE OF SHOALS   1200   45     160/ 18/ 20 1010.1R
JEFFREYS LEDGE   1206      43                N/A     3/10
CASHES LEDGE BUO 1150   45 43              1011.6    3/11
GEORGES BANK BUO 1150   48 44              1015.2    3/10
$$

.............KEY..............
   WCI - WIND CHILL
   TC  - TEMPERATURE IN CELSIUS
   VSB - VISIBILITY IN MILES
   HX  - HEAT INDEX
   FAIR- INDICATES FEW OR NO CLOUDS BELOW 12,000 FT, WITH NO
         SIGNIFICANT WEATHER AND/OR OBSTRUCTIONS TO VISIBILITY.






USA.gov is the U.S. government's official web portal to all federal, state and local government web resources and services.